User: anonymous   Login
Location: Bear Valley Community Church - Hurst
(32.8460°N, 97.1828°W)
Time: 15:38:39
(UTC+00:00)
Language:

Cosmos 2297 Rocket - Orbit

View from above orbital plane
View from above orbital plane
View from above satellite
View from above satellite

Ground track
Ground track

The orbit data is extracted from the following two-line orbital elements,

1 23405U 94077B   22145.64450131 -.00000074  00000-0 -13387-4 0  9998
2 23405  70.9841  23.4614 0000816 161.3784 198.7368 14.15255422420391
Epoch (UTC): 25 May 2022 15:28:04
Eccentricity: 0.0000816
inclination: 70.9841°
perigee height: 841 km
apogee height: 842 km
right ascension of ascending node: 23.4614°
argument of perigee: 161.3784°
revolutions per day: 14.15255422
mean anomaly at epoch: 198.7368°
orbit number at epoch: 42039

The dashed part of the orbit path shows where the satellite is in the earth's shadow,  

DLR